QPF
0.02 0.02 0.03 0.03 0.04 0.04 0.03 0.03 0.03 0.04 0.03 0.03 0.03 0.03 0.02 0.02 0.02 0.02 0.02 0.01 0.01 0.01 0.00 0.00 0.00 0.00 0.00 0.00 0.00 0.00 0.00 0.01 0.01 0.01 0.01 0.02 0.03 0.04 0.03 0.03 0.04 0.05 0.04
0.02 0.03 0.03 0.03 0.03 0.04 0.04 0.04 0.03 0.03 0.03 0.03 0.02 0.02 0.02 0.02 0.02 0.02 0.01 0.01 0.01 0.00 0.00 0.00 0.00 0.00 0.00 0.00 0.00 0.00 0.00 0.00 0.00 0.01 0.01 0.02 0.02 0.03 0.03 0.02 0.02 0.03 0.03
0.02 0.03 0.03 0.03 0.03 0.03 0.03 0.03 0.03 0.03 0.03 0.03 0.03 0.02 0.02 0.02 0.02 0.01 0.01 0.01 0.00 0.00 0.00 0.00 0.00 0.00 0.00 0.00 0.00 0.00 0.00 0.00 0.00 0.01 0.01 0.02 0.02 0.02 0.03 0.02 0.01 0.01 0.02
0.02 0.02 0.03 0.03 0.03 0.03 0.03 0.03 0.03 0.03 0.03 0.02 0.02 0.03 0.03 0.02 0.02 0.01 0.01 0.00 0.00 0.00 0.00 0.00 0.00 0.00 0.00 0.00 0.00 0.00 0.00 0.00 0.00 0.01 0.01 0.02 0.02 0.02 0.03 0.03 0.02 0.01 0.01
0.02 0.02 0.02 0.03 0.03 0.04 0.03 0.03 0.03 0.03 0.03 0.03 0.02 0.02 0.02 0.02 0.02 0.01 0.01 0.01 0.01 0.00 0.00 0.00 0.00 0.00 0.00 0.00 0.00 0.00 0.01 0.01 0.01 0.01 0.01 0.02 0.02 0.02 0.03 0.03 0.03 0.02 0.01
0.02 0.02 0.02 0.02 0.03 0.03 0.04 0.04 0.04 0.03 0.03 0.04 0.04 0.03 0.03 0.02 0.02 0.02 0.01 0.01 0.01 0.01 0.01 0.00 0.00 0.00 0.00 0.00 0.00 0.00 0.01 0.01 0.01 0.01 0.01 0.01 0.02 0.03 0.03 0.04 0.04 0.03 0.02
0.02 0.02 0.02 0.02 0.03 0.03 0.03 0.03 0.04 0.04 0.04 0.04 0.04 0.04 0.03 0.03 0.03 0.02 0.02 0.02 0.01 0.01 0.01 0.00 0.00 0.00 0.00 0.00 0.00 0.00 0.00 0.01 0.01 0.01 0.01 0.01 0.02 0.03 0.03 0.03 0.04 0.04 0.03
0.02 0.02 0.02 0.02 0.03 0.03 0.02 0.03 0.03 0.03 0.03 0.04 0.04 0.03 0.03 0.03 0.03 0.02 0.02 0.02 0.01 0.01 0.01 0.01 0.00 0.00 0.00 0.00 0.00 0.00 0.00 0.00 0.00 0.00 0.01 0.01 0.01 0.02 0.03 0.03 0.05 0.06 0.04
0.02 0.02 0.02 0.03 0.03 0.03 0.02 0.02 0.02 0.02 0.03 0.03 0.03 0.03 0.03 0.02 0.02 0.02 0.02 0.01 0.01 0.01 0.01 0.01 0.01 0.00 0.00 0.01 0.01 0.00 0.00 0.00 0.00 0.00 0.00 0.01 0.01 0.01 0.03 0.04 0.04 0.05 0.06
0.02 0.02 0.02 0.03 0.03 0.03 0.02 0.02 0.02 0.02 0.02 0.02 0.02 0.02 0.02 0.02 0.02 0.02 0.02 0.01 0.01 0.01 0.01 0.01 0.00 0.01 0.01 0.01 0.01 0.01 0.01 0.00 0.00 0.00 0.00 0.00 0.01 0.01 0.02 0.03 0.04 0.04 0.04
0.03 0.02 0.02 0.02 0.02 0.03 0.03 0.02 0.02 0.02 0.02 0.02 0.02 0.02 0.02 0.01 0.02 0.02 0.01 0.01 0.01 0.01 0.01 0.01 0.01 0.01 0.01 0.01 0.01 0.02 0.01 0.01 0.01 0.01 0.01 0.00 0.01 0.01 0.01 0.02 0.03 0.04 0.04
0.03 0.03 0.03 0.03 0.03 0.03 0.03 0.03 0.02 0.02 0.03 0.02 0.02 0.02 0.02 0.02 0.02 0.02 0.02 0.01 0.01 0.01 0.01 0.01 0.01 0.01 0.01 0.02 0.01 0.01 0.02 0.02 0.02 0.02 0.01 0.01 0.01 0.01 0.01 0.01 0.02 0.03 0.04
0.03 0.03 0.03 0.03 0.03 0.03 0.03 0.03 0.03 0.03 0.03 0.03 0.02 0.02 0.02 0.02 0.02 0.02 0.02 0.01 0.01 0.01 0.01 0.01 0.01 0.01 0.02 0.02 0.01 0.02 0.02 0.01 0.02 0.02 0.02 0.01 0.01 0.01 0.01 0.01 0.01 0.02 0.03
0.02 0.02 0.02 0.03 0.03 0.03 0.03 0.03 0.03 0.03 0.03 0.02 0.02 0.02 0.02 0.02 0.02 0.02 0.02 0.01 0.01 0.01 0.02 0.02 0.01 0.01 0.01 0.01 0.01 0.01 0.01 0.01 0.01 0.01 0.01 0.01 0.01 0.01 0.01 0.01 0.01 0.02 0.02
0.02 0.02 0.02 0.02 0.02 0.03 0.03 0.03 0.02 0.02 0.02 0.02 0.02 0.02 0.02 0.02 0.02 0.02 0.02 0.02 0.02 0.02 0.02 0.02 0.01 0.01 0.01 0.01 0.01 0.01 0.01 0.01 0.01 0.01 0.01 0.01 0.01 0.01 0.01 0.01 0.01 0.02 0.03
0.02 0.02 0.02 0.02 0.02 0.02 0.02 0.02 0.02 0.02 0.02 0.02 0.02 0.02 0.02 0.02 0.02 0.02 0.02 0.02 0.02 0.02 0.02 0.02 0.01 0.01 0.01 0.01 0.01 0.01 0.01 0.01 0.01 0.01 0.01 0.01 0.01 0.01 0.01 0.01 0.01 0.02 0.03
0.02 0.02 0.02 0.02 0.02 0.02 0.02 0.02 0.02 0.02 0.02 0.02 0.03 0.02 0.02 0.02 0.02 0.02 0.01 0.02 0.02 0.02 0.02 0.01 0.01 0.01 0.01 0.01 0.01 0.01 0.01 0.01 0.01 0.01 0.01 0.01 0.01 0.01 0.01 0.01 0.01 0.01 0.02
0.02 0.02 0.02 0.02 0.02 0.02 0.02 0.02 0.02 0.02 0.02 0.03 0.02 0.02 0.02 0.02 0.02 0.02 0.02 0.02 0.02 0.01 0.01 0.01 0.01 0.00 0.01 0.01 0.01 0.01 0.01 0.01 0.01 0.01 0.01 0.01 0.01 0.01 0.01 0.01 0.01 0.01 0.02
0.02 0.02 0.02 0.02 0.02 0.02 0.02 0.02 0.02 0.02 0.02 0.02 0.02 0.02 0.02 0.01 0.01 0.01 0.01 0.01 0.01 0.01 0.01 0.01 0.01 0.01 0.01 0.01 0.01 0.01 0.01 0.01 0.01 0.01 0.01 0.00 0.00 0.01 0.01 0.00 0.00 0.01 0.01
0.01 0.02 0.02 0.02 0.02 0.03 0.03 0.02 0.02 0.02 0.02 0.02 0.01 0.01 0.01 0.01 0.01 0.01 0.01 0.01 0.01 0.01 0.01 0.01 0.01 0.01 0.01 0.01 0.01 0.01 0.01 0.01 0.01 0.01 0.01 0.00 0.00 0.01 0.01 0.01 0.01 0.01 0.01
0.01 0.01 0.02 0.02 0.02 0.02 0.03 0.03 0.02 0.02 0.02 0.01 0.01 0.01 0.01 0.01 0.01 0.01 0.01 0.01 0.01 0.01 0.01 0.01 0.01 0.01 0.01 0.01 0.01 0.01 0.01 0.01 0.01 0.01 0.01 0.01 0.01 0.01 0.01 0.01 0.01 0.01 0.01
0.01 0.01 0.01 0.02 0.02 0.02 0.03 0.02 0.02 0.02 0.02 0.02 0.02 0.02 0.02 0.01 0.01 0.01 0.01 0.01 0.01 0.01 0.01 0.01 0.01 0.01 0.01 0.01 0.01 0.01 0.01 0.01 0.01 0.01 0.01 0.01 0.01 0.01 0.01 0.01 0.01 0.01 0.01
0.01 0.01 0.01 0.02 0.02 0.02 0.02 0.02 0.02 0.02 0.02 0.02 0.02 0.02 0.02 0.02 0.01 0.01 0.01 0.01 0.01 0.01 0.01 0.01 0.01 0.01 0.01 0.01 0.01 0.01 0.01 0.01 0.01 0.01 0.01 0.01 0.01 0.01 0.01 0.01 0.01 0.01 0.01
0.01 0.01 0.01 0.01 0.01 0.01 0.02 0.02 0.02 0.02 0.02 0.02 0.02 0.02 0.02 0.01 0.01 0.01 0.01 0.01 0.01 0.01 0.01 0.01 0.01 0.01 0.01 0.01 0.01 0.01 0.01 0.01 0.01 0.01 0.01 0.01 0.01 0.01 0.01 0.01 0.01 0.01 0.01
0.01 0.01 0.01 0.01 0.01 0.01 0.01 0.02 0.02 0.02 0.02 0.02 0.02 0.02 0.01 0.01 0.01 0.01 0.01 0.01 0.01 0.01 0.01 0.01 0.01 0.00 0.00 0.00 0.00 0.00 0.01 0.01 0.02 0.02 0.02 0.02 0.02 0.01 0.01 0.01 0.01 0.01 0.01
0.01 0.01 0.01 0.01 0.01 0.01 0.01 0.01 0.02 0.02 0.02 0.01 0.01 0.01 0.01 0.01 0.01 0.01 0.01 0.01 0.01 0.01 0.01 0.00 0.00 0.00 0.00 0.00 0.00 0.00 0.01 0.01 0.01 0.02 0.03 0.03 0.02 0.01 0.01 0.01 0.01 0.01 0.01
MSLP
1013.43 1013.17 1013.08 1013.21 1013.58 1014.20 1015.03 1016.03 1017.13 1018.24 1019.30 1020.24 1021.04 1021.69 1022.22 1022.66 1023.06 1023.48 1023.96 1024.50 1025.12 1025.80 1026.49 1027.18 1027.81 1028.37 1028.85 1029.23 1029.53 1029.77 1029.96 1030.12 1030.26 1030.39 1030.51 1030.62 1030.71 1030.79 1030.87 1030.93 1030.99 1031.06 1031.14
1013.65 1013.26 1013.03 1013.03 1013.27 1013.76 1014.48 1015.39 1016.41 1017.47 1018.50 1019.44 1020.26 1020.93 1021.48 1021.94 1022.37 1022.79 1023.26 1023.79 1024.38 1025.01 1025.67 1026.33 1026.94 1027.50 1027.99 1028.40 1028.76 1029.07 1029.34 1029.59 1029.82 1030.04 1030.24 1030.41 1030.56 1030.67 1030.76 1030.82 1030.87 1030.91 1030.95
1014.11 1013.62 1013.29 1013.15 1013.26 1013.61 1014.19 1014.96 1015.86 1016.82 1017.78 1018.67 1019.46 1020.13 1020.69 1021.18 1021.62 1022.06 1022.53 1023.04 1023.61 1024.21 1024.83 1025.45 1026.04 1026.58 1027.08 1027.53 1027.94 1028.32 1028.68 1029.02 1029.34 1029.65 1029.92 1030.16 1030.35 1030.49 1030.59 1030.65 1030.68 1030.70 1030.71
1014.80 1014.25 1013.83 1013.59 1013.57 1013.77 1014.19 1014.79 1015.53 1016.34 1017.18 1017.98 1018.71 1019.35 1019.91 1020.41 1020.87 1021.32 1021.79 1022.30 1022.84 1023.41 1023.99 1024.56 1025.12 1025.65 1026.15 1026.62 1027.07 1027.50 1027.93 1028.34 1028.74 1029.12 1029.46 1029.75 1029.98 1030.15 1030.26 1030.32 1030.36 1030.37 1030.38
1015.68 1015.10 1014.63 1014.31 1014.17 1014.23 1014.48 1014.90 1015.45 1016.09 1016.77 1017.44 1018.08 1018.66 1019.19 1019.69 1020.16 1020.62 1021.10 1021.59 1022.11 1022.64 1023.18 1023.70 1024.22 1024.71 1025.19 1025.66 1026.13 1026.59 1027.06 1027.52 1027.97 1028.40 1028.78 1029.11 1029.37 1029.57 1029.71 1029.80 1029.86 1029.90 1029.94
1016.70 1016.12 1015.63 1015.25 1015.02 1014.96 1015.05 1015.29 1015.66 1016.10 1016.60 1017.13 1017.65 1018.15 1018.63 1019.09 1019.55 1020.00 1020.47 1020.95 1021.43 1021.92 1022.41 1022.88 1023.34 1023.79 1024.23 1024.68 1025.13 1025.60 1026.07 1026.55 1027.02 1027.47 1027.88 1028.23 1028.52 1028.76 1028.94 1029.08 1029.20 1029.30 1029.40
1017.79 1017.24 1016.75 1016.36 1016.07 1015.92 1015.88 1015.96 1016.15 1016.41 1016.73 1017.09 1017.47 1017.86 1018.26 1018.67 1019.09 1019.51 1019.95 1020.39 1020.83 1021.27 1021.70 1022.11 1022.51 1022.90 1023.29 1023.69 1024.11 1024.55 1025.01 1025.48 1025.94 1026.39 1026.81 1027.19 1027.51 1027.79 1028.03 1028.25 1028.45 1028.64 1028.84
1018.91 1018.41 1017.96 1017.58 1017.27 1017.06 1016.93 1016.88 1016.91 1017.01 1017.16 1017.36 1017.59 1017.85 1018.15 1018.47 1018.81 1019.17 1019.55 1019.93 1020.32 1020.69 1021.05 1021.40 1021.73 1022.06 1022.40 1022.75 1023.12 1023.53 1023.95 1024.39 1024.84 1025.28 1025.70 1026.10 1026.46 1026.80 1027.11 1027.42 1027.72 1028.02 1028.33
1020.02 1019.59 1019.20 1018.85 1018.56 1018.32 1018.13 1018.00 1017.91 1017.87 1017.87 1017.91 1017.99 1018.11 1018.27 1018.48 1018.72 1018.99 1019.28 1019.58 1019.89 1020.19 1020.48 1020.76 1021.03 1021.31 1021.59 1021.90 1022.24 1022.60 1022.99 1023.41 1023.84 1024.27 1024.70 1025.12 1025.53 1025.92 1026.32 1026.72 1027.12 1027.53 1027.95
1021.11 1020.75 1020.42 1020.13 1019.87 1019.63 1019.42 1019.23 1019.06 1018.91 1018.79 1018.69 1018.62 1018.60 1018.62 1018.69 1018.80 1018.95 1019.13 1019.33 1019.55 1019.77 1019.99 1020.21 1020.43 1020.67 1020.92 1021.19 1021.50 1021.84 1022.22 1022.62 1023.04 1023.48 1023.92 1024.37 1024.82 1025.28 1025.75 1026.24 1026.73 1027.24 1027.75
1022.16 1021.87 1021.61 1021.37 1021.15 1020.94 1020.73 1020.51 1020.28 1020.05 1019.83 1019.61 1019.42 1019.25 1019.13 1019.06 1019.03 1019.05 1019.11 1019.20 1019.31 1019.45 1019.60 1019.77 1019.95 1020.16 1020.39 1020.66 1020.96 1021.30 1021.67 1022.08 1022.51 1022.96 1023.43 1023.92 1024.42 1024.93 1025.46 1026.02 1026.58 1027.15 1027.71
1023.17 1022.93 1022.72 1022.54 1022.35 1022.17 1021.97 1021.74 1021.49 1021.20 1020.91 1020.60 1020.29 1020.01 1019.76 1019.55 1019.38 1019.27 1019.20 1019.18 1019.20 1019.26 1019.35 1019.47 1019.62 1019.81 1020.04 1020.31 1020.62 1020.98 1021.37 1021.80 1022.25 1022.73 1023.24 1023.76 1024.30 1024.86 1025.43 1026.02 1026.62 1027.22 1027.81
1024.12 1023.91 1023.74 1023.59 1023.44 1023.28 1023.09 1022.87 1022.60 1022.29 1021.94 1021.57 1021.19 1020.81 1020.45 1020.13 1019.85 1019.61 1019.43 1019.31 1019.24 1019.22 1019.25 1019.33 1019.46 1019.64 1019.87 1020.15 1020.48 1020.86 1021.28 1021.74 1022.23 1022.74 1023.27 1023.83 1024.40 1024.98 1025.58 1026.19 1026.79 1027.39 1027.96
1024.97 1024.79 1024.64 1024.51 1024.38 1024.23 1024.06 1023.85 1023.58 1023.26 1022.89 1022.49 1022.06 1021.62 1021.19 1020.79 1020.42 1020.09 1019.83 1019.62 1019.47 1019.38 1019.36 1019.40 1019.50 1019.66 1019.89 1020.17 1020.52 1020.91 1021.36 1021.84 1022.35 1022.90 1023.46 1024.04 1024.62 1025.22 1025.82 1026.41 1027.00 1027.57 1028.11
1025.72 1025.55 1025.41 1025.29 1025.17 1025.04 1024.88 1024.67 1024.42 1024.11 1023.74 1023.33 1022.89 1022.43 1021.97 1021.52 1021.10 1020.72 1020.39 1020.11 1019.91 1019.76 1019.69 1019.68 1019.74 1019.88 1020.08 1020.36 1020.70 1021.09 1021.54 1022.03 1022.56 1023.12 1023.69 1024.28 1024.87 1025.47 1026.05 1026.63 1027.18 1027.71 1028.21
1026.34 1026.18 1026.05 1025.94 1025.83 1025.71 1025.56 1025.37 1025.13 1024.84 1024.50 1024.11 1023.68 1023.23 1022.77 1022.32 1021.89 1021.49 1021.13 1020.82 1020.56 1020.37 1020.24 1020.19 1020.20 1020.29 1020.45 1020.68 1020.99 1021.36 1021.79 1022.27 1022.78 1023.33 1023.91 1024.49 1025.08 1025.66 1026.23 1026.78 1027.31 1027.80 1028.25
1026.84 1026.71 1026.59 1026.49 1026.39 1026.28 1026.14 1025.97 1025.75 1025.48 1025.17 1024.82 1024.43 1024.02 1023.60 1023.18 1022.76 1022.37 1022.01 1021.68 1021.40 1021.17 1021.00 1020.88 1020.84 1020.86 1020.96 1021.13 1021.37 1021.69 1022.07 1022.50 1022.99 1023.51 1024.07 1024.64 1025.21 1025.78 1026.33 1026.87 1027.37 1027.84 1028.27
1027.22 1027.12 1027.04 1026.96 1026.87 1026.77 1026.64 1026.48 1026.28 1026.04 1025.77 1025.46 1025.12 1024.77 1024.40 1024.03 1023.66 1023.30 1022.95 1022.63 1022.34 1022.09 1021.87 1021.71 1021.60 1021.55 1021.56 1021.65 1021.82 1022.05 1022.36 1022.74 1023.17 1023.65 1024.17 1024.72 1025.27 1025.83 1026.38 1026.91 1027.41 1027.87 1028.30
1027.50 1027.45 1027.39 1027.34 1027.27 1027.17 1027.05 1026.90 1026.72 1026.51 1026.27 1026.01 1025.72 1025.43 1025.12 1024.81 1024.49 1024.18 1023.87 1023.57 1023.28 1023.01 1022.77 1022.56 1022.39 1022.27 1022.21 1022.21 1022.29 1022.44 1022.67 1022.97 1023.34 1023.76 1024.24 1024.76 1025.30 1025.84 1026.39 1026.93 1027.44 1027.92 1028.35
1027.69 1027.68 1027.66 1027.62 1027.56 1027.48 1027.36 1027.22 1027.04 1026.85 1026.64 1026.41 1026.17 1025.92 1025.67 1025.42 1025.16 1024.90 1024.63 1024.36 1024.09 1023.83 1023.57 1023.33 1023.12 1022.94 1022.81 1022.75 1022.74 1022.81 1022.96 1023.19 1023.48 1023.85 1024.29 1024.77 1025.29 1025.83 1026.39 1026.94 1027.47 1027.97 1028.43
1027.79 1027.81 1027.81 1027.79 1027.74 1027.65 1027.53 1027.38 1027.21 1027.02 1026.82 1026.62 1026.41 1026.21 1026.00 1025.79 1025.58 1025.36 1025.14 1024.91 1024.66 1024.41 1024.16 1023.91 1023.68 1023.47 1023.30 1023.18 1023.12 1023.13 1023.21 1023.37 1023.61 1023.92 1024.31 1024.76 1025.26 1025.79 1026.35 1026.92 1027.47 1028.01 1028.50
1027.78 1027.83 1027.84 1027.82 1027.76 1027.67 1027.54 1027.38 1027.20 1027.01 1026.81 1026.62 1026.42 1026.24 1026.06 1025.88 1025.70 1025.52 1025.33 1025.13 1024.91 1024.68 1024.45 1024.22 1023.99 1023.78 1023.60 1023.46 1023.37 1023.34 1023.38 1023.49 1023.68 1023.95 1024.30 1024.71 1025.18 1025.71 1026.27 1026.84 1027.42 1027.97 1028.49
1027.68 1027.72 1027.73 1027.70 1027.63 1027.52 1027.38 1027.20 1027.01 1026.81 1026.61 1026.41 1026.22 1026.04 1025.87 1025.70 1025.53 1025.37 1025.19 1025.01 1024.82 1024.62 1024.41 1024.20 1024.00 1023.81 1023.65 1023.52 1023.43 1023.39 1023.42 1023.51 1023.67 1023.90 1024.21 1024.59 1025.04 1025.54 1026.09 1026.66 1027.24 1027.80 1028.33
1027.48 1027.51 1027.50 1027.45 1027.36 1027.24 1027.08 1026.90 1026.70 1026.49 1026.27 1026.07 1025.87 1025.68 1025.50 1025.32 1025.15 1024.97 1024.80 1024.62 1024.43 1024.25 1024.07 1023.89 1023.72 1023.57 1023.45 1023.35 1023.29 1023.27 1023.30 1023.39 1023.54 1023.75 1024.03 1024.39 1024.80 1025.27 1025.80 1026.35 1026.92 1027.47 1027.99
1027.21 1027.21 1027.18 1027.11 1027.01 1026.88 1026.71 1026.53 1026.33 1026.12 1025.90 1025.69 1025.47 1025.26 1025.06 1024.85 1024.65 1024.45 1024.25 1024.05 1023.85 1023.67 1023.50 1023.34 1023.21 1023.10 1023.01 1022.96 1022.94 1022.96 1023.02 1023.12 1023.28 1023.48 1023.75 1024.07 1024.45 1024.89 1025.38 1025.90 1026.44 1026.97 1027.47
1026.89 1026.86 1026.81 1026.74 1026.64 1026.51 1026.35 1026.18 1025.99 1025.78 1025.57 1025.35 1025.12 1024.89 1024.65 1024.40 1024.15 1023.90 1023.65 1023.41 1023.18 1022.97 1022.79 1022.64 1022.52 1022.44 1022.40 1022.39 1022.42 1022.48 1022.58 1022.71 1022.87 1023.08 1023.34 1023.64 1024.00 1024.40 1024.85 1025.33 1025.83 1026.32 1026.78
Thickness
5454 5454 5454 5453 5452 5451 5450 5449 5449 5448 5446 5446 5444 5443 5441 5439 5437 5435 5432 5429 5426 5423 5421 5419 5418 5416 5414 5412 5410 5408 5407 5406 5404 5403 5403 5404 5404 5405 5405 5406 5407 5408 5410
5443 5443 5443 5442 5441 5440 5439 5437 5436 5436 5434 5434 5433 5431 5430 5428 5426 5424 5421 5418 5415 5412 5410 5408 5406 5404 5402 5399 5397 5396 5395 5394 5393 5391 5391 5391 5391 5392 5392 5393 5393 5394 5396
5431 5431 5430 5430 5429 5429 5428 5426 5425 5423 5422 5421 5420 5419 5417 5416 5414 5412 5410 5407 5405 5402 5400 5397 5395 5393 5390 5388 5386 5384 5383 5382 5381 5380 5380 5379 5379 5379 5379 5379 5380 5381 5383
5419 5419 5418 5418 5418 5417 5416 5414 5413 5411 5410 5409 5407 5406 5405 5403 5401 5399 5397 5395 5393 5390 5388 5386 5383 5381 5379 5377 5375 5373 5372 5370 5369 5368 5368 5368 5367 5367 5366 5366 5367 5368 5369
5407 5407 5406 5406 5405 5403 5402 5401 5400 5398 5397 5396 5394 5393 5391 5390 5388 5386 5385 5383 5380 5377 5375 5373 5371 5369 5368 5366 5364 5362 5361 5359 5358 5357 5357 5357 5356 5355 5354 5354 5354 5355 5356
5395 5394 5393 5392 5391 5390 5389 5388 5387 5385 5383 5382 5381 5379 5378 5376 5375 5374 5372 5370 5367 5365 5363 5360 5358 5357 5355 5354 5354 5353 5351 5349 5347 5346 5346 5345 5345 5344 5343 5343 5341 5341 5344
5381 5381 5380 5379 5378 5377 5375 5374 5373 5371 5370 5368 5367 5366 5364 5363 5362 5361 5360 5357 5354 5352 5350 5348 5346 5344 5343 5342 5341 5341 5340 5339 5338 5337 5335 5334 5334 5334 5332 5331 5330 5329 5330
5368 5367 5367 5366 5365 5363 5362 5361 5359 5358 5356 5355 5353 5352 5351 5350 5349 5348 5347 5344 5341 5339 5337 5335 5333 5332 5330 5330 5329 5328 5327 5327 5326 5326 5325 5325 5324 5323 5322 5321 5319 5318 5318
5354 5354 5353 5352 5351 5349 5348 5347 5345 5344 5342 5341 5339 5338 5336 5335 5335 5334 5333 5330 5328 5325 5323 5322 5321 5320 5319 5319 5317 5316 5315 5314 5314 5314 5314 5313 5313 5312 5310 5309 5307 5306 5306
5341 5340 5339 5338 5337 5336 5335 5333 5332 5330 5328 5327 5325 5323 5322 5321 5320 5320 5319 5317 5314 5312 5310 5309 5309 5308 5307 5307 5306 5304 5303 5303 5302 5301 5300 5300 5299 5298 5297 5296 5294 5292 5292
5327 5326 5326 5325 5324 5323 5321 5320 5317 5316 5314 5311 5310 5309 5308 5307 5306 5306 5305 5303 5301 5299 5297 5296 5296 5296 5296 5296 5295 5293 5293 5292 5290 5288 5287 5286 5286 5285 5283 5282 5281 5280 5279
5314 5313 5312 5311 5310 5309 5307 5305 5303 5300 5298 5296 5295 5293 5292 5292 5291 5291 5291 5290 5288 5286 5285 5284 5283 5283 5284 5283 5282 5282 5281 5279 5277 5275 5274 5273 5272 5271 5270 5269 5268 5267 5266
5300 5299 5298 5296 5295 5294 5292 5291 5288 5285 5283 5281 5280 5279 5278 5278 5277 5277 5277 5277 5275 5273 5272 5272 5271 5271 5270 5269 5269 5268 5267 5265 5264 5262 5261 5260 5259 5258 5257 5256 5256 5255 5254
5286 5284 5283 5282 5280 5279 5277 5276 5274 5272 5270 5268 5267 5265 5264 5263 5263 5262 5262 5262 5262 5260 5258 5258 5257 5257 5256 5255 5254 5253 5252 5251 5250 5248 5247 5246 5245 5244 5244 5243 5242 5241 5240
5272 5270 5269 5267 5265 5264 5262 5261 5260 5259 5258 5257 5255 5253 5252 5251 5251 5251 5250 5249 5248 5247 5245 5243 5243 5242 5241 5240 5239 5238 5237 5236 5235 5234 5233 5232 5231 5230 5230 5229 5228 5227 5225
5259 5257 5255 5253 5251 5250 5248 5247 5246 5246 5246 5245 5244 5242 5241 5241 5240 5240 5240 5239 5238 5236 5234 5232 5230 5229 5227 5226 5225 5224 5223 5222 5221 5220 5218 5217 5217 5216 5216 5215 5214 5212 5212
5246 5244 5242 5240 5239 5237 5236 5235 5233 5232 5232 5231 5231 5231 5230 5230 5229 5229 5228 5227 5226 5225 5221 5219 5218 5216 5215 5213 5212 5211 5210 5208 5207 5206 5205 5203 5203 5202 5201 5201 5200 5199 5199
5233 5232 5230 5228 5226 5225 5223 5222 5221 5219 5218 5217 5217 5217 5218 5218 5217 5216 5216 5214 5211 5210 5208 5207 5205 5204 5202 5201 5199 5198 5197 5196 5194 5193 5191 5190 5189 5188 5187 5187 5187 5186 5186
5220 5219 5218 5216 5214 5213 5212 5210 5208 5206 5205 5204 5203 5203 5203 5203 5203 5202 5201 5199 5197 5196 5195 5193 5192 5191 5189 5188 5187 5186 5184 5183 5181 5180 5179 5178 5176 5175 5175 5175 5175 5176 5175
5208 5208 5207 5204 5202 5201 5199 5198 5195 5193 5192 5190 5189 5189 5189 5189 5188 5187 5186 5185 5184 5183 5181 5180 5179 5177 5176 5175 5173 5172 5171 5170 5169 5168 5167 5166 5165 5164 5163 5163 5163 5163 5163
5197 5196 5196 5193 5190 5189 5187 5185 5184 5182 5180 5179 5178 5178 5179 5178 5176 5174 5173 5172 5171 5169 5168 5166 5165 5164 5163 5162 5160 5159 5158 5158 5157 5156 5155 5155 5154 5153 5153 5153 5153 5153 5153
5187 5185 5183 5181 5179 5177 5176 5174 5172 5170 5168 5167 5166 5165 5167 5165 5163 5162 5161 5160 5158 5157 5156 5154 5153 5152 5151 5150 5149 5147 5147 5146 5146 5145 5144 5144 5143 5143 5143 5143 5143 5143 5143
5176 5174 5172 5170 5168 5167 5165 5162 5160 5158 5156 5155 5154 5154 5153 5152 5151 5150 5149 5148 5146 5145 5144 5143 5142 5141 5140 5138 5137 5137 5136 5136 5136 5135 5134 5134 5133 5133 5133 5134 5134 5134 5134
5166 5164 5161 5158 5156 5154 5152 5150 5148 5147 5145 5144 5143 5142 5141 5140 5139 5138 5137 5136 5135 5134 5133 5132 5131 5130 5129 5128 5127 5127 5127 5126 5126 5126 5126 5125 5125 5125 5125 5125 5125 5126 5126
5155 5153 5150 5147 5145 5143 5141 5139 5137 5136 5135 5134 5132 5131 5130 5129 5128 5128 5127 5126 5125 5124 5123 5122 5122 5121 5120 5119 5119 5118 5118 5118 5118 5119 5119 5119 5119 5118 5118 5117 5117 5118 5118
5144 5142 5139 5136 5134 5132 5130 5128 5127 5125 5124 5123 5122 5121 5120 5119 5118 5118 5117 5116 5115 5115 5114 5113 5113 5112 5112 5111 5111 5111 5111 5112 5112 5113 5113 5113 5112 5112 5111 5111 5111 5111 5111